Location: Berg
(47.2344°N, 9.5296°E)
Time: 23:01:13
(UTC+00:00)

Cosmos-2242 - Pass Details

Date: 24 January 2021
Orbit: 591 x 616 km, 82.5° (Epoch: 04 March)

Event Time Altitude Azimuth Distance (km) Brightness Sun altitude
Rises 17:50:18 0° 356° (N) 2,847 6.4 -16.5°
Reaches altitude 10° 17:52:36 10° 4° (N) 1,944 5.5 -16.9°
Maximum altitude 17:56:41 41° 76° (ENE) 872 3.3 -17.6°
Enters shadow 17:59:05 21° 135° (SE) 1,346 4.4 -18.0°
